Skip Page Navigation
NASA JPL Caltech
NASA Logo - Jet Propulsion Laboratory + View the NASA Portal
+ Center for Near-Earth Object Studies
JPL Home Earth Solar System Stars & Galaxies Technology
JPL Solar System Dynamics
BODIES ORBITS EPHEMERIDES TOOLS PHYSICAL DATA DISCOVERY FAQ SITE MAP
IMPORTANT: The SSD Announcement email list is now available. Major changes are coming in the near future, including possible hostname and/or URL changes. To be notified of such changes, subscribe to this email list.

Please visit this page for more details.


JPL Small-Body Database Browser
Search: [ help ]  
47586 (2000 AE193)
Classification: Main-belt Asteroid          SPK-ID: 2047586
Ephemeris | Orbit Diagram | Orbital Elements | Mission Design | Physical Parameters | Discovery Circumstances | Close-Approach Data ]

[ show orbit diagram ]
Orbital Elements at Epoch 2458600.5 (2019-Apr-27.0) TDB
Reference: JPL 29 (heliocentric ecliptic J2000)
 Element Value Uncertainty (1-sigma)   Units 
e .027274229735264 4.2223e-08  
a 2.647905524905468 1.2442e-08 au
q 2.575685941301921 1.085e-07 au
i 13.60132428131575 3.9788e-06 deg
node 186.1331787680377 1.4443e-05 deg
peri 3.925399289872095 6.5351e-05 deg
M 100.5611379873121 6.4195e-05 deg
tp 2458160.877578474942
(2018-Feb-11.37757848)
0.00028029 TDB
period 1573.809474679862
4.31
1.1093e-05
3.037e-08
d
yr
n .2287443339183289 1.6123e-09 deg/d
Q 2.720125108509014 1.2782e-08 au
  Orbit Determination Parameters
   # obs. used (total)      1290  
   data-arc span      7753 days (21.23 yr)  
   first obs. used      1998-09-14  
   last obs. used      2019-12-06  
   planetary ephem.      DE431  
   SB-pert. ephem.      SB431-N16  
   condition code      0  
   norm. resid. RMS      .54478  
   source      ORB  
   producer      Otto Matic  
   solution date      2019-Dec-14 04:04:11  

Additional Information
 Earth MOID = 1.57679 au 
 Jupiter MOID = 2.23591 au 
 T_jup = 3.351 
[ show covariance matrix ]

Ephemeris | Orbit Diagram | Orbital Elements | Mission Design | Physical Parameters | Discovery Circumstances | Close-Approach Data ]

Physical Parameter Table
Parameter Symbol Value Units Sigma Reference Notes
absolute magnitude H 14.6   n/a MPO347853  

47586 (2000 AE193)          Discovered 2000-Jan-08 by LINEAR at Socorro
Reference: 20020921/Numbers.arcLast Updated: 2004-04-19

[ show close-approach data ]
Alternate Designations
 2000 AE193 = 1998 SL106 
Ephemeris | Orbit Diagram | Orbital Elements | Mission Design | Physical Parameters | Discovery Circumstances | Close-Approach Data ]
ABOUT SSD CREDITS/AWARDS PRIVACY/COPYRIGHT GLOSSARY LINKS
FirstGov 2020-Jan-27 09:14 UT
(server date/time)  
NASA Home Page
Site Manager:   Ryan S. Park
Webmaster  Alan B. Chamberlin